Regional Weather Roundup
Issued by NWS

Home | Current Version | Previous Version | Graphics & Text | Print | Product List | Glossary On
Versions: 1 2 3 4 5 6 7 8 9 10 11 12 13 14 15 16 17 18 19 20 21 22 23 24 25 26 27 28 29 30 31 32 33 34 35 36 37 38 39 40 41 42 43 44 45 46 47 48 49 50
000
ASUS44 KMEG 211410
RWRTN
TENNESSEE HOURLY STATE WEATHER ROUNDUP
NATIONAL WEATHER SERVICE MEMPHIS TN
900 AM CDT SUN SEP 21 2014

TNZ002-004-019-021-049-052-054-088>092-211500-
WEST TENNESSEE

CITY           SKY/WX    TMP DP  RH WIND       PRES   REMARKS
MEMPHIS INTL   MOSUNNY   78  68  71 W6        30.04R
NWS MEMPHIS      N/A     76 N/A N/A MISG        N/A
JACKSON        SUNNY     75  67  76 W10       30.02S
DYERSBURG      MOSUNNY   75  61  60 W6        30.02R
UNION CITY     MOSUNNY   73  70  88 SW3       29.99R
PARIS          PTSUNNY   72  66  83 W10       30.00R
HUNTINGDON     MOSUNNY   74  67  78 W9        30.01R
LEXINGTON      SUNNY     73  66  78 SW7       30.01S
SAVANNAH       SUNNY     73  72  94 SW8       30.05R
$$

TNZ008-025-027-028-033-062-065-066-211500-
NORTH MIDDLE TENNESSEE

CITY           SKY/WX    TMP DP  RH WIND       PRES   REMARKS
NASHVILLE      PTSUNNY   78  67  68 W8G16     29.99S
DICKSON        PTSUNNY   72  64  78 W9        30.00S
PORTLAND       MOSUNNY   72  66  83 SW8       29.96S
CLARKSVILLE    CLOUDY    72  67  84 W8        29.98R
LEBANON        PTSUNNY   71  65  81 SW12      29.98R
SMYRNA         MOSUNNY   76  67  73 W9        30.00S
MURFREESBORO   PTSUNNY   73  64  73 SW8       30.00S
COOKEVILLE     MOSUNNY   70  66  88 SW6       30.01S
LIVINGSTON     SUNNY     69  63  81 SW9       30.01R
GALLATIN       PTSUNNY   71  70  97 VRB3      29.98F
CROSSVILLE     MOSUNNY   73  62  68 W10       30.05S
$$

TNZ061-075-076-078-094-096-097-211500-
SOUTH MIDDLE TENNESSEE

CITY           SKY/WX    TMP DP  RH WIND       PRES   REMARKS
LEWISBURG      PTSUNNY   76  65  68 SW8       30.02R
FAYETTEVILLE   SUNNY     70  64  83 W8        30.06R
WINCHESTER     SUNNY     73  64  73 W7        30.05R
MCMINNVILLE    MOSUNNY   73  70  88 SW8       30.03S
COLUMBIA       MOSUNNY   75  70  83 SW9       30.01S
SHELBYVILLE    MOSUNNY   75  66  73 SW8       30.04R
$$

TNZ017-018-042-046-047-211500-
NORTHEAST TENNESSEE

CITY           SKY/WX    TMP DP  RH WIND       PRES   REMARKS
TRI CITIES     PTSUNNY   64  58  80 CALM      30.03S
ELIZABETHTON   CLOUDY    61  55  82 CALM      30.04S
$$

TNZ012-013-036-069-073-074-211500-
CENTRAL EAST TENNESSEE

CITY           SKY/WX    TMP DP  RH WIND       PRES   REMARKS
KNOXVILLE      MOSUNNY   73  61  65 SW15      30.00F
OAK RIDGE      SUNNY     71  63  75 VRB5      30.03S
GATLINBURG     SUNNY     72  61  68 VRB5      30.01F
MORRISTOWN     SUNNY     72  63  73 SW12      30.02F
$$

TNZ083-085-099-211500-
SOUTHEAST TENNESSEE

CITY           SKY/WX    TMP DP  RH WIND       PRES   REMARKS
CHATTANOOGA    MOSUNNY   72  62  71 S5        30.03F
$$

SKY/WX REPORTED AS FAIR MEANS FEW OR NO CLOUDS BELOW
12 THOUSAND FEET.




USA.gov is the U.S. government's official web portal to all federal, state and local government web resources and services.